User: anonymous   Login
Location: Caltech
(34.1382°N, 118.1253°W)
Time: 15:25:48
(UTC-08:00)
Language:

SO-67 - Orbit

View from above orbital plane
View from above orbital plane
View from above satellite
View from above satellite

Ground track
Ground track

The orbit data is extracted from the following two-line orbital elements,

1 35870U 09049F   17017.43849007  .00003682  00000-0  63567-4 0  9996
2 35870  97.1108  35.6540 0000267  59.2152  47.4398 15.51643888409831
Epoch (UTC): 17 January 2017 10:31:25
Eccentricity: 0.0000267
inclination: 97.1108°
perigee height: 412 km
apogee height: 412 km
right ascension of ascending node: 35.6540°
argument of perigee: 59.2152°
revolutions per day: 15.51643888
mean anomaly at epoch: 47.4398°
orbit number at epoch: 40983

The dashed part of the orbit path shows where the satellite is in the earth's shadow,  

DLR